Salinas, CA

11:14 AM PDT on July 26, 2017 (GMT -0700)
Salinas Municipal

Weather History for KSNS - December, 2012

Change the Weather History Date:

Saturday, December 15, 2012

  Actual Average Record
Temperature  
Mean Temperature 42 °F 51 °F  
Max Temperature 48 °F 61 °F 77 °F (1942)
Min Temperature 36 °F 41 °F 26 °F (1935)
Degree Days  
Heating Degree Days 23 14  
Month to date heating degree days 183 204  
Since 1 July heating degree days 615 822  
Cooling Degree Days 0 0  
Month to date cooling degree days 0 0  
Year to date cooling degree days 110 130  
Moisture  
Dew Point 38 °F    
Average Humidity 82    
Maximum Humidity 92    
Minimum Humidity 71    
Precipitation  
Precipitation 0.08 in 0.06 in 0.94 in (1962)
Month to date precipitation 1.13 0.84  
Year to date precipitation 11.57 11.74  
Since 1 July precipitation 4.45  
Sea Level Pressure  
Sea Level Pressure 30.08 in    
Wind  
Wind Speed 11 mph (ESE)    
Max Wind Speed 23 mph    
Max Gust Speed 28 mph    
Visibility 10 miles    
Events Rain    
T = Trace of Precipitation, MM = Missing Value Source: NWS Daily Summary

Daily Weather History Graph

Daily Weather History Graph

Search for Another Location

Airport or City:

Trip Planner

Search our weather history database for the weather conditions in past years. The results will help you decide how hot, cold, wet, or windy it might be!

Date:

Astronomy

Dec. 15, 2012 Rise Set
Actual Time 7:11 AM PST 4:51 PM PST
Civil Twilight 6:43 AM PST 5:20 PM PST
Nautical Twilight 6:10 AM PST 5:53 PM PST
Astronomical Twilight 5:39 AM PST 6:24 PM PST
Moon 9:11 AM PST (12/15) 7:58 PM PST (12/15)
Length of Visible Light 10h 37m
Length of Day
9h 40m
Waxing Crescent, 9% of the Moon is Illuminated
Dec 15
Waxing Crescent
Dec 19
First Quarter
Dec 28
Full
Jan 4
Last Quarter
Jan 11
New

Hourly Weather History & Observations

Time (PST) Temp. Windchill Dew Point Humidity Pressure Visibility Wind Dir Wind Speed Gust Speed Precip Events Conditions
12:53 AM 39.0 °F 35.7 °F 37.0 °F 93% 30.08 in 10.0 mi East 4.6 mph - N/A   Scattered Clouds
1:53 AM 39.0 °F - 36.0 °F 89% 30.09 in 10.0 mi Calm Calm - N/A   Clear
2:53 AM 37.0 °F - 35.1 °F 93% 30.10 in 10.0 mi Calm Calm - N/A   Clear
3:53 AM 37.0 °F 30.4 °F 34.0 °F 89% 30.07 in 10.0 mi ESE 9.2 mph - N/A   Clear
4:53 AM 37.0 °F 31.0 °F 34.0 °F 89% 30.07 in 10.0 mi East 8.1 mph - N/A   Clear
5:53 AM 36.0 °F 31.1 °F 34.0 °F 93% 30.09 in 10.0 mi ESE 5.8 mph - N/A   Clear
6:53 AM 36.0 °F 29.0 °F 33.1 °F 89% 30.10 in 10.0 mi ESE 9.2 mph - N/A   Clear
7:53 AM 37.0 °F 28.1 °F 34.0 °F 89% 30.09 in 10.0 mi ESE 15.0 mph - N/A   Clear
8:53 AM 39.9 °F 31.8 °F 35.1 °F 83% 30.12 in 10.0 mi ESE 15.0 mph - N/A   Mostly Cloudy
9:53 AM 43.0 °F 36.0 °F 37.0 °F 80% 30.15 in 10.0 mi ESE 13.8 mph - N/A   Overcast
10:53 AM 45.0 °F 38.5 °F 37.9 °F 76% 30.14 in 10.0 mi ESE 13.8 mph - N/A   Partly Cloudy
11:53 AM 46.0 °F 39.9 °F 39.0 °F 76% 30.11 in 10.0 mi ESE 13.8 mph - N/A   Mostly Cloudy
12:53 PM 46.0 °F 40.6 °F 39.0 °F 76% 30.09 in 10.0 mi ESE 11.5 mph - N/A   Overcast
1:53 PM 46.9 °F - 39.0 °F 74% 30.07 in 10.0 mi East 12.7 mph - N/A   Overcast
2:53 PM 46.9 °F - 41.0 °F 80% 30.06 in 6.0 mi ESE 10.4 mph - 0.01 in Rain Light Rain
3:53 PM 46.0 °F 41.9 °F 42.1 °F 86% 30.07 in 5.0 mi East 8.1 mph - 0.04 in Rain Light Rain
4:53 PM 46.0 °F 39.9 °F 42.1 °F 86% 30.07 in 8.0 mi East 13.8 mph - 0.02 in Rain Light Rain
5:53 PM 46.0 °F 41.0 °F 42.1 °F 86% 30.06 in 10.0 mi ESE 10.4 mph - 0.01 in Rain Light Rain
6:53 PM 46.9 °F - 41.0 °F 80% 30.06 in 10.0 mi East 12.7 mph - 0.00 in   Overcast
7:53 PM 46.9 °F - 41.0 °F 80% 30.06 in 10.0 mi East 16.1 mph - N/A   Overcast
8:53 PM 46.9 °F - 41.0 °F 80% 30.05 in 10.0 mi ESE 17.3 mph - N/A   Overcast
9:53 PM 48.0 °F - 39.9 °F 74% 30.04 in 10.0 mi East 18.4 mph - N/A   Overcast
10:53 PM 46.9 °F - 41.0 °F 80% 30.07 in 10.0 mi ESE 15.0 mph 24.2 mph N/A   Overcast
11:53 PM 46.0 °F 40.6 °F 41.0 °F 83% 30.08 in 10.0 mi ESE 11.5 mph - N/A   Mostly Cloudy